User: anonymous   Login
Location: Albany
(35.0000°S, 118.0000°E)
Time: 05:11:49
(UTC-04:00)
Language:

ADEOS Rocket - Orbit

View from above orbital plane
View from above orbital plane
View from above satellite
View from above satellite

Ground track
Ground track

The orbit data is extracted from the following two-line orbital elements,

1 24279U 96046C   16144.95195449 +.00000002 +00000-0 +47876-4 0  9999
2 24279 098.7003 132.0848 0299704 201.2912 173.9478 13.47049353971574
Epoch (UTC): 23 May 2016 22:50:48
Eccentricity: 0.0299704
inclination: 98.7003°
perigee height: 859 km
apogee height: 1307 km
right ascension of ascending node: 132.0848°
argument of perigee: 201.2912°
revolutions per day: 13.47049353
mean anomaly at epoch: 173.9478°
orbit number at epoch: 97157

The dashed part of the orbit path shows where the satellite is in the earth's shadow,  

DLR